Flag for USA

Past Weather in Battle Ground, Washington, USA — Yesterday and Last 2 Weeks

Now
66 °F

Broken clouds.


Feels Like: 66 °F
Forecast: 69 / 55 °F
Wind: 6 mph from Northwest

Location: Vancouver - Pearson Airpark

Current Time: Jul 7, 2020 at 7:17:15 pm

Latest Report: Jul 7, 2020 at 6:53 pm


Visibility: 10 mi

Pressure: 30.09 "Hg

Humidity: 65%

Dew Point: 54 °F

Location of Battle GroundLocation

Past Weather in Battle Ground — Graph

°F

Battle Ground Temperature Yesterday

Maximum temperature yesterday: 68 °F (at 2:53 pm)
Minimum temperature yesterday: 58 °F (at 1:53 am)
Average temperature yesterday: 63 °F

High & Low Weather Summary for the Past Weeks

 TemperatureHumidityPressure
High93 °F (Jun 23, 3:53 pm)83% (Jun 29, 4:53 am)30.21 "Hg (Jun 29, 4:53 am)
Low51 °F (Jun 29, 4:53 am)27% (Jun 23, 2:53 pm)29.84 "Hg (Jun 23, 6:53 pm)
Average65 °F61%30.03 "Hg
* Reported Jun 22 5:53 pm — Jul 7 5:53 pm, Battle Ground. Weather by CustomWeather, © 2020

Note: Actual official high and low records may vary slightly from our data, if they occured in-between our weather recording intervals... More about our weather records

Battle Ground Weather History for the Previous 24 Hours

Scroll right to see more
 ConditionsComfort  
Time TempWeatherWind HumidityBarometerVisibility
5:53 pm
Tue, Jul 7
69 °FBroken clouds.No wind61%30.09 "Hg10 mi
4:53 pm66 °FMore clouds than sun.5 mph70%30.09 "Hg10 mi
3:53 pm66 °FOvercast.5 mph65%30.10 "Hg10 mi
2:53 pm67 °FLight rain. Overcast.3 mph61%30.11 "Hg7 mi
1:53 pm65 °FOvercast.No wind63%30.12 "Hg10 mi
1:06 pm64 °FOvercast.5 mph63%30.12 "Hg10 mi
12:53 pm65 °FOvercast.5 mph63%30.12 "Hg10 mi
11:53 am64 °FMostly cloudy.5 mph65%30.11 "Hg10 mi
11:34 am63 °FMostly cloudy.3 mph70%30.12 "Hg10 mi
10:53 am60 °FMostly cloudy.3 mph75%30.12 "Hg8 mi
10:43 am60 °FMostly cloudy.3 mph75%30.12 "Hg10 mi
10:00 am58 °FMore clouds than sun.3 mph81%30.13 "Hg7 mi
9:34 am58 °FLight rain. Mostly cloudy.No wind81%30.13 "Hg2 mi
9:11 am58 °FLight rain. Mostly cloudy.3 mph81%30.13 "Hg2 mi
8:53 am58 °FMostly cloudy.5 mph78%30.12 "Hg10 mi
8:10 am57 °FMore clouds than sun.3 mph83%30.12 "Hg6 mi
7:53 am57 °FCloudy.3 mph83%30.12 "Hg4 mi
7:32 am57 °FMostly cloudy.No wind81%30.12 "Hg2 mi
7:23 am57 °FMore clouds than sun.3 mph78%30.12 "Hg3 mi
6:53 am58 °FMore clouds than sun.6 mph72%30.11 "Hg10 mi
6:04 am59 °FCloudy.3 mph69%30.10 "Hg10 mi
5:22 am59 °FOvercast.No wind69%30.09 "Hg8 mi
5:05 am59 °FMostly cloudy.No wind69%30.09 "Hg10 mi
3:53 am59 °FOvercast.No wind69%30.08 "Hg10 mi
2:53 am60 °FOvercast.No wind67%30.08 "Hg10 mi
1:53 am60 °FOvercast.3 mph65%30.08 "Hg10 mi
12:53 am60 °FOvercast.5 mph67%30.07 "Hg10 mi
11:53 pm
Mon, Jul 6
61 °FMostly cloudy.3 mph65%30.06 "Hg10 mi
10:53 pm62 °FPassing clouds.5 mph65%30.06 "Hg10 mi
9:53 pm63 °FOvercast.5 mph63%30.05 "Hg10 mi
8:53 pm63 °FMore clouds than sun.7 mph65%30.04 "Hg10 mi
7:53 pm65 °FOvercast.10 mph61%30.04 "Hg10 mi
Weather by CustomWeather, © 2020

See weather overview